DLH456 EDDF-KLAX

Flight info

Callsign DLH456
Flight time N/A
Altitude 32000
Route MARUN3W/25C MARUN Y152 ARPEG Z850 ABILU DCT ATPAQ DCT OMIMA DCT KARLI DCT ISVIG/M083F320 DCT 67N010W/M083F340 70N020W 73N040W 74N060W DCT DAPAK/N0478F360 DCT 73N080W 7130N09000W 6830N10000W 62N110W DCT YSM DCT YZU/N0473F380 DCT WASEN/N0475F370 DCT ONSET DCT YUMIE/N0468F390 DCT FMG J7 REBRG IRNMN2
Aircraft A346/H-SDE2E3FGHIJ3J4J5M1RWXY/LB1D1

Departure

Time 2026-05-06 13:28
Airport Frankfurt Main Airport (EDDF)

Arrival

Time N/A
Airport Los Angeles International Airport (KLAX)
Time Latitude Longitude Altitude Speed Heading
2026-05-06 13:05 50.04656 8.56054 374 ft 0 kts 340°
2026-05-06 13:13 50.04655 8.56054 374 ft 1 kts 340°
2026-05-06 13:13 50.04642 8.56062 374 ft 2 kts 338°
2026-05-06 13:13 50.04633 8.56068 374 ft 1 kts 339°
2026-05-06 13:14 50.04620 8.56077 374 ft 2 kts 323°
2026-05-06 13:14 50.04609 8.56094 374 ft 2 kts 303°
2026-05-06 13:14 50.04602 8.56114 374 ft 2 kts 287°
2026-05-06 13:14 50.04600 8.56137 374 ft 2 kts 270°
2026-05-06 13:15 50.04602 8.56160 374 ft 2 kts 253°
2026-05-06 13:15 50.04604 8.56170 374 ft 1 kts 249°
2026-05-06 13:15 50.04604 8.56171 374 ft 0 kts 249°
2026-05-06 13:18 50.04602 8.56165 374 ft 1 kts 249°
2026-05-06 13:18 50.04592 8.56119 374 ft 8 kts 250°
2026-05-06 13:18 50.04567 8.56022 374 ft 10 kts 243°
2026-05-06 13:18 50.04510 8.55950 374 ft 11 kts 203°
2026-05-06 13:19 50.04424 8.55909 373 ft 13 kts 189°
2026-05-06 13:19 50.04326 8.55940 371 ft 15 kts 161°
2026-05-06 13:19 50.04233 8.55944 367 ft 13 kts 198°
2026-05-06 13:19 50.04136 8.55946 364 ft 15 kts 164°
2026-05-06 13:20 50.04085 8.56075 363 ft 15 kts 83°
2026-05-06 13:20 50.04115 8.56225 365 ft 14 kts 69°
2026-05-06 13:20 50.04150 8.56375 367 ft 15 kts 70°
2026-05-06 13:20 50.04191 8.56545 369 ft 17 kts 70°
2026-05-06 13:21 50.04235 8.56730 371 ft 18 kts 70°
2026-05-06 13:21 50.04279 8.56916 376 ft 18 kts 70°
2026-05-06 13:21 50.04329 8.57123 377 ft 23 kts 70°
2026-05-06 13:21 50.04385 8.57361 378 ft 23 kts 70°
2026-05-06 13:22 50.04443 8.57601 376 ft 24 kts 70°
2026-05-06 13:22 50.04499 8.57837 381 ft 21 kts 70°
2026-05-06 13:22 50.04542 8.58016 384 ft 16 kts 70°
2026-05-06 13:22 50.04582 8.58184 386 ft 16 kts 70°
2026-05-06 13:23 50.04620 8.58339 386 ft 13 kts 69°
2026-05-06 13:23 50.04639 8.58422 383 ft 5 kts 70°
2026-05-06 13:23 50.04641 8.58429 383 ft 0 kts 69°
2026-05-06 13:25 50.04642 8.58431 383 ft 1 kts 69°
2026-05-06 13:25 50.04654 8.58483 381 ft 8 kts 70°
2026-05-06 13:25 50.04630 8.58570 377 ft 9 kts 158°
2026-05-06 13:25 50.04561 8.58612 374 ft 9 kts 156°
2026-05-06 13:26 50.04522 8.58656 372 ft 5 kts 152°
2026-05-06 13:26 50.04505 8.58653 371 ft 3 kts 215°
2026-05-06 13:26 50.04501 8.58642 372 ft 0 kts 245°
2026-05-06 13:26 50.04500 8.58641 372 ft 0 kts 248°
2026-05-06 13:27 50.04499 8.58636 372 ft 4 kts 248°
2026-05-06 13:27 50.04419 8.58308 382 ft 61 kts 250°
2026-05-06 13:27 50.04201 8.57393 372 ft 118 kts 251°
2026-05-06 13:27 50.03855 8.55939 355 ft 165 kts 249°
2026-05-06 13:28 50.03414 8.54090 513 ft 187 kts 249°
2026-05-06 13:28 50.02968 8.52243 1000 ft 184 kts 250°
2026-05-06 13:28 50.02472 8.50381 1352 ft 191 kts 240°
2026-05-06 13:28 50.01579 8.48877 1771 ft 195 kts 217°
2026-05-06 13:29 50.00338 8.48025 2197 ft 198 kts 194°
2026-05-06 13:29 49.98969 8.47673 2512 ft 199 kts 190°
2026-05-06 13:29 49.97588 8.47397 2798 ft 202 kts 190°
2026-05-06 13:29 49.96198 8.47072 3105 ft 202 kts 195°
2026-05-06 13:30 49.94832 8.46522 3422 ft 203 kts 199°
2026-05-06 13:30 49.93472 8.45904 3766 ft 203 kts 199°
2026-05-06 13:30 49.92174 8.45109 4100 ft 200 kts 217°
2026-05-06 13:30 49.91210 8.43639 4394 ft 198 kts 239°
2026-05-06 13:31 49.90673 8.41616 4578 ft 205 kts 262°
2026-05-06 13:31 49.90696 8.39385 4758 ft 215 kts 283°
2026-05-06 13:31 49.91329 8.37234 4939 ft 228 kts 307°
2026-05-06 13:31 49.92582 8.35581 5151 ft 244 kts 333°
2026-05-06 13:32 49.94157 8.34510 5423 ft 257 kts 335°
2026-05-06 13:32 49.95830 8.33466 5724 ft 269 kts 335°
2026-05-06 13:32 49.97526 8.32400 6117 ft 278 kts 335°
2026-05-06 13:32 49.99261 8.31290 6503 ft 287 kts 334°
2026-05-06 13:33 50.01119 8.30087 7076 ft 290 kts 334°
2026-05-06 13:33 50.02975 8.28882 7656 ft 292 kts 335°
2026-05-06 13:33 50.04968 8.28164 8165 ft 301 kts 358°
2026-05-06 13:33 50.07031 8.28710 8699 ft 307 kts 17°
2026-05-06 13:34 50.09060 8.29802 9255 ft 310 kts 18°
2026-05-06 13:34 50.11073 8.30922 9760 ft 314 kts 18°
2026-05-06 13:34 50.13162 8.32066 10281 ft 317 kts 17°
2026-05-06 13:34 50.15228 8.33176 10784 ft 321 kts 17°
2026-05-06 13:35 50.17386 8.34283 11032 ft 333 kts 12°
2026-05-06 13:35 50.19729 8.34608 11301 ft 341 kts 355°
2026-05-06 13:35 50.22140 8.34382 11576 ft 353 kts 353°
2026-05-06 13:35 50.24643 8.34108 11827 ft 366 kts 354°
2026-05-06 13:36 50.27200 8.33880 12071 ft 379 kts 355°
2026-05-06 13:36 50.29910 8.33693 12332 ft 390 kts 355°
2026-05-06 13:36 50.32630 8.33542 12811 ft 395 kts 356°
2026-05-06 13:36 50.35363 8.33409 13337 ft 398 kts 356°
2026-05-06 13:37 50.38155 8.33284 13872 ft 400 kts 356°
2026-05-06 13:37 50.40928 8.33165 14393 ft 403 kts 356°
2026-05-06 13:37 50.43723 8.33051 14870 ft 406 kts 356°
2026-05-06 13:37 50.46564 8.32934 15353 ft 409 kts 355°
2026-05-06 13:38 50.49412 8.32381 15805 ft 410 kts 346°
2026-05-06 13:38 50.52156 8.31395 16293 ft 412 kts 344°
2026-05-06 13:38 50.54968 8.30322 16753 ft 415 kts 344°
2026-05-06 13:38 50.57776 8.29272 17198 ft 418 kts 344°
2026-05-06 13:39 50.60646 8.28229 17643 ft 421 kts 345°
2026-05-06 13:39 50.63482 8.27222 18077 ft 424 kts 345°
2026-05-06 13:39 50.66350 8.26216 18512 ft 426 kts 345°
2026-05-06 13:39 50.69279 8.25197 18965 ft 429 kts 345°
2026-05-06 13:40 50.72191 8.24189 19412 ft 431 kts 345°
2026-05-06 13:40 50.75100 8.23183 19845 ft 433 kts 345°
2026-05-06 13:40 50.78059 8.22160 20262 ft 436 kts 345°
2026-05-06 13:40 50.81015 8.21139 20692 ft 438 kts 345°
2026-05-06 13:41 50.83997 8.20107 21120 ft 440 kts 345°
2026-05-06 13:41 50.87004 8.19066 21545 ft 442 kts 345°
2026-05-06 13:41 50.89983 8.18035 21953 ft 444 kts 345°
2026-05-06 13:41 50.93038 8.16973 22356 ft 446 kts 345°
2026-05-06 13:42 50.96046 8.15928 22732 ft 448 kts 345°
2026-05-06 13:42 50.99128 8.14856 23096 ft 451 kts 345°
2026-05-06 13:42 51.02190 8.13789 23457 ft 453 kts 345°
2026-05-06 13:42 51.05238 8.12725 23825 ft 455 kts 345°
2026-05-06 13:43 51.08328 8.11645 24198 ft 457 kts 345°
2026-05-06 13:43 51.11447 8.10553 24541 ft 459 kts 346°
2026-05-06 13:43 51.14561 8.09461 24880 ft 461 kts 346°
2026-05-06 13:43 51.17680 8.08365 25242 ft 462 kts 346°
2026-05-06 13:44 51.20844 8.07253 25615 ft 463 kts 346°
2026-05-06 13:44 51.23979 8.06151 25953 ft 464 kts 346°
2026-05-06 13:44 51.27132 8.05042 26280 ft 465 kts 346°
2026-05-06 13:44 51.30299 8.03926 26591 ft 467 kts 347°
2026-05-06 13:45 51.33420 8.02824 26890 ft 469 kts 347°
2026-05-06 13:45 51.39817 8.00561 27472 ft 472 kts 347°
2026-05-06 13:45 51.43031 7.99421 27757 ft 474 kts 347°
2026-05-06 13:46 51.46265 7.98272 28041 ft 475 kts 347°
2026-05-06 13:46 51.49446 7.97142 28418 ft 475 kts 347°
2026-05-06 13:46 51.52672 7.95993 28817 ft 474 kts 347°
2026-05-06 13:46 51.55858 7.94855 29217 ft 473 kts 347°
2026-05-06 13:47 51.59050 7.93716 29600 ft 471 kts 347°
2026-05-06 13:47 51.62250 7.92572 29971 ft 471 kts 347°
2026-05-06 13:47 51.65455 7.91424 30297 ft 471 kts 347°
2026-05-06 13:47 51.68655 7.90277 30548 ft 472 kts 347°
2026-05-06 13:48 51.71865 7.89123 30770 ft 474 kts 347°
2026-05-06 13:48 51.75046 7.87979 30995 ft 475 kts 347°
2026-05-06 13:48 51.78267 7.86818 31209 ft 476 kts 347°
2026-05-06 13:48 51.81519 7.85645 31415 ft 477 kts 347°
2026-05-06 13:49 51.84740 7.84481 31585 ft 478 kts 347°
2026-05-06 13:49 51.87984 7.83307 31745 ft 480 kts 347°
2026-05-06 13:49 51.91245 7.82126 31907 ft 481 kts 347°
2026-05-06 13:49 51.94462 7.80960 32156 ft 480 kts 347°
2026-05-06 13:50 51.97704 7.79784 32429 ft 478 kts 347°
2026-05-06 13:50 52.00938 7.78607 32671 ft 477 kts 347°
2026-05-06 13:50 52.04172 7.77427 32872 ft 476 kts 347°
2026-05-06 13:50 52.07415 7.76243 33041 ft 477 kts 346°
2026-05-06 13:51 52.10621 7.75070 33194 ft 477 kts 346°
2026-05-06 13:51 52.13855 7.73885 33327 ft 478 kts 346°
2026-05-06 13:51 52.17096 7.72695 33440 ft 479 kts 346°
2026-05-06 13:51 52.20361 7.71495 33600 ft 479 kts 346°
2026-05-06 13:52 52.23564 7.70318 33765 ft 479 kts 346°
2026-05-06 13:52 52.26816 7.69119 33837 ft 481 kts 346°
2026-05-06 13:52 52.33343 7.66707 33840 ft 481 kts 346°
2026-05-06 13:53 52.39828 7.64303 33846 ft 481 kts 346°
2026-05-06 13:53 52.46356 7.61878 33848 ft 481 kts 346°
2026-05-06 13:54 52.52853 7.59457 33848 ft 480 kts 346°
2026-05-06 13:54 52.59344 7.57033 33848 ft 480 kts 346°
2026-05-06 13:55 52.65832 7.54601 33859 ft 480 kts 347°
2026-05-06 13:55 52.72316 7.52164 33861 ft 480 kts 346°
2026-05-06 13:56 52.78803 7.49717 33863 ft 481 kts 346°
2026-05-06 13:56 52.85339 7.47243 33857 ft 480 kts 346°
2026-05-06 13:57 52.91798 7.44792 33860 ft 480 kts 346°
2026-05-06 13:57 52.98292 7.42319 33868 ft 480 kts 347°
2026-05-06 13:58 53.04785 7.39841 33863 ft 480 kts 346°
2026-05-06 13:58 53.11297 7.37347 33860 ft 481 kts 346°
2026-05-06 13:59 53.17796 7.34850 33865 ft 482 kts 346°
2026-05-06 13:59 53.24298 7.32345 33875 ft 482 kts 346°
2026-05-06 14:00 53.30821 7.29823 33878 ft 482 kts 346°
2026-05-06 14:00 53.37342 7.27294 33882 ft 482 kts 345°
2026-05-06 14:01 53.43849 7.24762 33884 ft 482 kts 345°
2026-05-06 14:01 53.50370 7.22217 33887 ft 482 kts 345°
2026-05-06 14:02 53.63160 7.17203 33887 ft 482 kts 345°
2026-05-06 14:03 53.69685 7.14630 33882 ft 483 kts 345°
2026-05-06 14:03 53.76178 7.12065 33888 ft 483 kts 345°
2026-05-06 14:04 53.82717 7.09473 33897 ft 483 kts 345°
2026-05-06 14:04 53.83813 7.09038 33898 ft 483 kts 345°